Home   Weather   Tuscaloosa   Past weeks

Flag for USA Past Weather in Tuscaloosa, Alabama, USA — Yesterday and Last 2 Weeks

Now
66 °F

Overcast.


Feels Like: 66 °F
Forecast: 59 / 67 °F
Wind: 5 mph from East

Location: Tuscaloosa Municipal Airport

Current Time: Jan 18, 2017 at 4:42:57 pm

Latest Report: Jan 18, 2017 at 3:53 pm


Visibility: 10 mi

Pressure: 30.10 "Hg

Humidity: 78%

Dew Point: 59 °F

Location of TuscaloosaLocation

Past Weather in Tuscaloosa — Graph

°F

Tuscaloosa Temperature Yesterday

Maximum temperature yesterday: 78 °F (at 1:53 pm)
Minimum temperature yesterday: 60 °F (at 11:53 pm)
Average temperature yesterday: 68 °F

High & Low Weather Summary for the Past Weeks

 TemperatureHumidityPressure
High78 °F (Jan 17, 1:53 pm)100% (Jan 3, 7:34 pm)30.82 "Hg (Jan 3, 7:34 pm)
Low15 °F (Jan 8, 6:53 am)30% (Jan 9, 11:53 am)29.86 "Hg (Jan 3, 4:53 pm)
Average52 °F74%30.26 "Hg
* Reported Jan 3 2:53 pm — Jan 18 2:53 pm, Tuscaloosa, Weather by CustomWeather, © 2017

Note: Actual official high and low records may vary slightly from our data, if they occured in-between our weather recording intervals... More about our weather records

Advertising

Tuscaloosa Weather History for the Previous 24 Hours

Scroll right to see more
 ConditionsComfort  
Time TempWeatherWind HumidityBarometerVisibility
2:53 pm
Wed, Jan 18
64 °FOvercast.3 mph81%30.10 "Hg10 mi
2:02 pm64 °FOvercast.6 mph81%30.13 "Hg10 mi
1:42 pm64 °FOvercast.6 mph81%30.13 "Hg10 mi
12:53 pm63 °FMostly cloudy.6 mph84%30.14 "Hg2 mi
12:29 pm62 °FMostly cloudy.3 mph90%30.15 "Hg2 mi
11:53 am62 °FFog.6 mph90%30.17 "Hg2 mi
11:08 am63 °FOvercast.5 mph81%30.19 "Hg10 mi
10:53 am63 °FOvercast.6 mph81%30.19 "Hg10 mi
9:53 am62 °FOvercast.6 mph83%30.21 "Hg10 mi
8:53 am61 °FOvercast.6 mph83%30.20 "Hg10 mi
7:53 am61 °FOvercast.3 mph87%30.18 "Hg10 mi
6:53 am61 °FOvercast.7 mph90%30.17 "Hg10 mi
6:31 am61 °FOvercast.5 mph90%30.17 "Hg9 mi
5:53 am61 °FOvercast.3 mph90%30.15 "Hg10 mi
5:42 am61 °FMostly cloudy.5 mph93%30.16 "Hg10 mi
4:53 am62 °FLow clouds.5 mph93%30.14 "Hg9 mi
4:20 am62 °FMostly cloudy.3 mph93%30.14 "Hg10 mi
3:53 am61 °FOvercast.No wind97%30.13 "Hg9 mi
3:44 am61 °FMostly cloudy.3 mph97%30.14 "Hg9 mi
3:14 am62 °FMostly cloudy.6 mph93%30.14 "Hg9 mi
2:53 am61 °FOvercast.No wind97%30.13 "Hg8 mi
1:53 am60 °FOvercast.No wind93%30.12 "Hg8 mi
1:00 am60 °FPassing clouds.No wind100%30.13 "Hg9 mi
11:53 pm
Tue, Jan 17
60 °FPassing clouds.No wind96%30.12 "Hg10 mi
11:03 pm63 °FPassing clouds.No wind93%30.16 "Hg10 mi
10:53 pm64 °FPassing clouds.3 mph90%30.15 "Hg10 mi
10:06 pm64 °FOvercast.5 mph90%30.16 "Hg10 mi
8:53 pm64 °FClear.7 mph90%30.15 "Hg9 mi
7:53 pm66 °FPassing clouds.5 mph84%30.13 "Hg10 mi
6:53 pm70 °FPartly cloudy.6 mph73%30.14 "Hg10 mi
5:53 pm72 °FPassing clouds.5 mph66%30.13 "Hg10 mi
4:53 pm75 °FPassing clouds.7 mph58%30.12 "Hg10 mi
Weather by CustomWeather, © 2017

See weather overviewHow to use our weather pages